YAOGAN 20A

导读

YAOGAN 20A(遥感二十号A星)是中国于2014年8月9日在酒泉卫星发射中心,由长征四号丙运载火箭发射升空的遥感卫星,与20B、20C共同组成遥感二十号组网。卫星由上海航天技术研究院研制,主要用于获取对地观测数据,服务科学试验、国土资源普查、农作物估产与防灾减灾等领域,是中国遥感卫星体系的重要组成。

Basic Information
目录编号:
40109
目录名称:
YAOGAN 20A
国际标识:
2014-047A
轨道中心:
EARTH
卫星名称:
YAOGAN 20A
卫星全名:
--
卫星状态:
在轨 (已飞行4371 天)
发射日期:
2014-08-09 UTC
国别 :
中国 (CN)
星等 :
--
Orbit Information
数据来源 国际轨道数据 AOE轨道数据
星历时间 2026-07-28T11:57:53+0800
8小时前
查看轨道信息
2026-07-28T09:00:00+0800
11小时前
查看轨道信息
半长轴 7467.208km 7467.208km
偏心率 0.0393586 0.0393873
轨道倾角 63.379° 63.379°
近地点辐角 14.886° 14.886°
升交点赤经 273.490° 273.808°
平近点角 346.337° 108.028°
近地点 795.172km 794.957km
远地点 1382.97km 1383.185km
周期 107.028分钟 107.028分钟
每日圈数 13.454434 13.454433
Detailed Information
使用方式:
暂无
2D Orbit Map
3D Orbit Map
Orbit Altitude Analysis Chart
Orbit Inclination Analysis Chart
Orbit Comprehensive Analysis Chart
View Comprehensive Chart